Spokane Felts, WA
on Thursday, November 15, 2012

Thursday
Previous Day Next Day
Daily Summary
 ActualAverageRecord
Temperature
Mean Temperature °F 37°F  
Max Temperature 47°F 44°F 60°F (2001)
Min Temperature 36°F 31°F 19°F (1997)
Degree Days
Heating Degree Days 23 28  
Month to date heating degree days 345 380  
Since 1 July heating degree days 904 1117  
Cooling Degree Days 0 0  
Month to date cooling degree days 0 0  
Year to date cooling degree days 509 406  
Moisture
Dew Point 34°F   
Average Humidity 75    
Maximum Humidity 89    
Minimum Humidity 60    
Precipitation
Precipitation 0.00 in 0.07 in 0.23 in (2004)
Month to date precipitation 1.20 1.05  
Year to date precipitation 16.79 14.00  
Wind
Wind Speed 2 mph   
Max Wind Speed 12 mph   
Max Gust Speed 14 mph   
Visibility 10 miles   
Events     

Key: T is trace of precipitation, MM is missing value
Source: NWS Daily Summary
Time(PST)TemperatureDew PointHumidity Pressure Visibility Wind DirectionWind SpeedGust SpeedPrecipitationEvents Conditions
12:09 AM 37.4°F 33.8°F 87% 30.34 in 10.0 miles Calm Calm - N/A   Overcast
12:21 AM 37.4°F 33.8°F 87% 30.33 in 10.0 miles Calm Calm - N/A   Overcast
12:53 AM 37.9°F 33.1°F 83% 30.37 in 10.0 miles Calm Calm - N/A   Overcast
1:36 AM 37.4°F 33.8°F 87% 30.33 in 10.0 miles Calm Calm - N/A   Overcast
1:53 AM 37.9°F 33.1°F 83% 30.37 in 10.0 miles Calm Calm - N/A   Overcast
2:26 AM 37.4°F 33.8°F 87% 30.32 in 10.0 miles Calm Calm - N/A   Overcast
2:53 AM 37.9°F 34.0°F 86% 30.35 in 10.0 miles Calm Calm - N/A   Overcast
3:11 AM 37.4°F 33.8°F 87% 30.31 in 10.0 miles Calm Calm - N/A   Overcast
3:18 AM 37.4°F 33.8°F 87% 30.31 in 10.0 miles Calm Calm - N/A   Overcast
3:53 AM 37.0°F 33.1°F 86% 30.34 in 10.0 miles Calm Calm - N/A   Overcast
4:53 AM 37.0°F 33.1°F 86% 30.34 in 10.0 miles Calm Calm - N/A   Overcast
5:53 AM 37.0°F 33.1°F 86% 30.32 in 10.0 miles Calm Calm - N/A   Overcast
6:53 AM 36.0°F 32.0°F 86% 30.31 in 10.0 miles Calm Calm - N/A   Overcast
7:53 AM 37.0°F 32.0°F 82% 30.31 in 9.0 miles Calm Calm - N/A   Mostly Cloudy
8:53 AM 39.9°F 34.0°F 79% 30.30 in 7.0 miles Calm Calm - N/A   Mostly Cloudy
9:50 AM 39.2°F 33.8°F 81% 30.24 in 10.0 miles SE 5.8 mph - N/A   Mostly Cloudy
9:53 AM 39.9°F 33.1°F 77% 30.28 in 10.0 miles ESE 4.6 mph - N/A   Mostly Cloudy
10:53 AM 41.0°F 34.0°F 76% 30.24 in 10.0 miles East 3.5 mph - N/A   Mostly Cloudy
11:53 AM 43.0°F 35.1°F 74% 30.20 in 10.0 miles Calm Calm - N/A   Mostly Cloudy
12:53 PM 45.0°F 36.0°F 71% 30.16 in 10.0 miles NNW 4.6 mph - N/A   Scattered Clouds
1:53 PM 46.0°F 34.0°F 63% 30.15 in 10.0 miles East 9.2 mph - N/A   Scattered Clouds
2:53 PM 45.0°F 34.0°F 65% 30.14 in 10.0 miles East 6.9 mph - N/A   Mostly Cloudy
3:53 PM 43.0°F 36.0°F 76% 30.11 in 10.0 miles Calm Calm - N/A   Mostly Cloudy
4:53 PM 42.1°F 36.0°F 79% 30.09 in 10.0 miles Calm Calm - N/A   Overcast
5:53 PM 41.0°F 34.0°F 76% 30.09 in 10.0 miles Variable 3.5 mph - N/A   Overcast
6:53 PM 39.9°F 34.0°F 79% 30.07 in 10.0 miles Calm Calm - N/A   Mostly Cloudy
7:53 PM 37.9°F 33.1°F 83% 30.07 in 10.0 miles Calm Calm - N/A   Overcast
8:53 PM 37.9°F 33.1°F 83% 30.06 in 10.0 miles ESE 3.5 mph - N/A   Overcast
9:53 PM 39.0°F 33.1°F 79% 30.04 in 10.0 miles Calm Calm - N/A   Overcast
10:53 PM 37.9°F 33.1°F 83% 30.03 in 10.0 miles Calm Calm - N/A   Overcast
11:53 PM 36.0°F 32.0°F 86% 30.04 in 10.0 miles Calm Calm - N/A   Scattered Clouds
Moon Phase
Nov. 15 Nov. 20 Nov. 28 Dec. 06 Dec. 13
Sunrise:06:55 AM (PST) Moon Rise:09:01 AM (PST)11/15
Sunset:04:11 PM (PST) Moon Set:06:03 PM (PST)11/15

Copyright © 2014 The Weather Underground, Inc.